Printer-friendly version

IAU Minor Planet Center

Minor Planet Center

MPEC 2006-G12 : 2006 GA

The following Minor Planet Electronic Circular may be linked-to from your own Web pages, but must not otherwise be redistributed electronically.


Read MPEC 2006-G11 Read MPEC 2006-G13


M.P.E.C. 2006-G12                                Issued 2006 Apr. 3, 14:02 UT

     The Minor Planet Electronic Circulars contain information on unusual
         minor planets and routine data on comets.  They are published
   on behalf of Commission 20 of the International Astronomical Union by the
          Minor Planet Center, Smithsonian Astrophysical Observatory,
                          Cambridge, MA 02138, U.S.A.

                  Supported in part by the Brinson Foundation
                  Supported in part by the TABASGO Foundation
             Prepared using the Tamkin Foundation Computer Network

                              MPC@CFA.HARVARD.EDU
          URL http://cfa-www.harvard.edu/iau/mpc.html  ISSN 1523-6714

                                    2006 GA

Observations:
     K06G00A* C2006 04 02.15196 10 03 22.64 +07 56 58.4          19.1 R EG012699
     K06G00A  C2006 04 02.17569 10 03 38.06 +07 58 59.2                 EG012699
     K06G00A  C2006 04 02.19946 10 03 53.27 +08 00 57.6                 EG012699
     K06G00A  C2006 04 02.22321 10 04 08.60 +08 02 59.0                 EG012699
     K06G00A  C2006 04 02.86526 10 11 06.32 +08 55 01.7                 EG012J95
     K06G00A  C2006 04 02.86818 10 11 08.13 +08 55 15.6                 EG012J95
     K06G00A  C2006 04 02.87087 10 11 09.84 +08 55 28.6          18.9 R EG012J95
     K06G00A  C2006 04 02.90012 10 11 27.58 +08 57 51.1          18.5 R EG012204
     K06G00A  C2006 04 02.90241 10 11 28.95 +08 58 01.5                 EG012204
     K06G00A  C2006 04 02.90486 10 11 30.47 +08 58 13.3          18.8 R EG012204
     K06G00A  C2006 04 02.90887 10 11 32.94 +08 58 31.5                 EG012204
     K06G00A  C2006 04 02.91110 10 11 34.36 +08 58 42.3          18.6 R EG012204
     K06G00A  C2006 04 02.91331 10 11 35.39 +08 58 50.2          19.0 R EG012118
     K06G00A  C2006 04 02.91767 10 11 38.10 +08 59 10.6          18.8 R EG012118
     K06G00A  C2006 04 02.92347 10 11 41.70 +08 59 38.4          18.9 R EG012118
     K06G00A IC2006 04 03.09601 10 13 32.79 +09 13 13.1          19.0 R EG012H36
     K06G00A  C2006 04 03.10605 10 13 39.00 +09 13 59.1          18.6 R EG012H36

Observer details:
118 Modra.  Observers S. Gajdos, J. Vilagi.  0.6-m f/5.5 reflector + CCD.
204 Schiaparelli Observatory.  Observer L. Buzzi.  0.60-m f/4.64 reflector
    + CCD.
699 Lowell Observatory-LONEOS.  Observer M. E. Van Ness.  0.59-m LONEOS
    Schmidt + CCD.
H36 Sandlot Observatory, Scranton.  Observer G. Hug.  0.30-m
    Schmidt-Cassegrain + CCD.
J95 Great Shefford.  Observer P. Birtwhistle.  0.40-m f/6.0 Schmidt-Cassegrain
    + CCD.

Orbital elements:
2006 GA                                                  Earth MOID = 0.0894 AU
Epoch 2006 Mar. 6.0 TT = JDT 2453800.5                  MPC
M   4.45385              (2000.0)            P               Q
n   0.25383357     Peri.  303.99372     -0.66822254     -0.74257176
a   2.4704155      Node   188.40092     +0.74283480     -0.66260329
e   0.6186779      Incl.   18.12549     +0.04092794     -0.09769370
P   3.88           H   21.4           G   0.15           U   8
Residuals in seconds of arc
060402 699  0.7-  0.1+    060402 J95  0.4+  0.2+    060402 118  0.1-  0.6-
060402 699  0.9+  0.6+    060402 204  0.7+  0.3+    060402 118  0.0   0.7-
060402 699  0.6-  1.1-    060402 204  0.1-  0.1-    060402 118  0.1-  0.1-
060402 699  0.2+  0.7+    060402 204  0.0   0.2+    060403 H36  0.8-  0.8+
060402 J95  0.1-  0.1-    060402 204  0.2-  0.5-    060403 H36  0.4+  0.2+
060402 J95  0.2-  0.0     060402 204  0.3+  0.2-

Ephemeris:
2006 GA                  a,e,i = 2.47, 0.62, 18                  q = 0.9420
Date    TT    R. A. (2000) Decl.     Delta      r     Elong.  Phase     V
2006 03 26    08 28.14   -05 04.8    0.130    1.073   122.4    51.7    19.0
2006 03 31    09 37.97   +04 37.7    0.145    1.106   134.5    40.1    19.0
2006 04 05    10 32.29   +11 27.4    0.175    1.141   140.4    33.9    19.3
2006 04 10    11 11.85   +15 32.0    0.214    1.178   141.9    31.7    19.8
2006 04 15    11 40.56   +17 47.5    0.260    1.217   141.2    31.1    20.2
2006 04 20    12 01.94   +18 56.4    0.310    1.256   139.6    31.2    20.7
2006 04 25    12 18.44   +19 23.9    0.363    1.297   137.6    31.5    21.1
2006 04 30    12 31.67   +19 24.3    0.419    1.339   135.5    31.8    21.5
2006 05 05    12 42.70   +19 06.3    0.478    1.381   133.3    32.1    21.9

Kyle E. Smalley              (C) Copyright 2006 MPC           M.P.E.C. 2006-G12

Read MPEC 2006-G11 Read MPEC 2006-G13


Our Web policy. Index to the CBAT/MPC/ICQ pages.


Valid HTML 4.01!